This demonstration page uses our WeatherBlox Daily Observations layout. Learn more.

Left ArrowRight Arrow

39.92423, -83.80882

Hourly Observations for June 12, 2022

Temp ( °F °C ) Dew Point ( °F °C ) Humidity (%) Winds ( mph kmh ) Pressure ( in mb ) Visibility ( mi km ) Precip ( " mm )
12:56 am 00:56 Cloudy with Light Rain N/A N/A N/A ESE 6 9 N/A 8 13 0.00 0.00
1:27 am 01:27 Cloudy with Light Rain N/A N/A N/A Calm N/A 9 14 0.00 0.00
1:56 am 01:56 Cloudy with Light Rain N/A N/A N/A SE 3 6 N/A 7 11 0.00 0.00
2:03 am 02:03 Cloudy with Light Rain N/A N/A N/A SSE 5 7 N/A 7 11 0.00 0.00
2:56 am 02:56 Cloudy with Light Rain N/A N/A N/A S 8 13 N/A 7 11 0.00 0.00
3:56 am 03:56 Cloudy N/A N/A N/A S 7 11 N/A 10 16 0.00 0.00
4:56 am 04:56 Mostly Clear N/A N/A N/A S 7 11 N/A 10 16 0.00 0.00
5:56 am 05:56 Clear N/A N/A N/A SSW 5 7 N/A 9 14 0.00 0.00
6:56 am 06:56 Sunny N/A N/A N/A S 5 7 N/A 7 11 0.00 0.00
7:49 am 07:49 Mostly Sunny N/A N/A N/A SW 6 9 N/A 10 16 0.00 0.00
7:56 am 07:56 Mostly Sunny N/A N/A N/A SSW 7 11 N/A 10 16 0.00 0.00
8:13 am 08:13 Mostly Cloudy N/A N/A N/A SSW 6 9 N/A 10 16 0.00 0.00
8:56 am 08:56 Mostly Cloudy 70 21 N/A N/A WSW 7 11 29.87 1011 10 16 0.00 0.00
9:26 am 09:26 Cloudy 70 21 N/A N/A WSW 7 11 29.85 1011 10 16 0.00 0.00
9:56 am 09:56 Mostly Cloudy 72 22 N/A N/A WSW 7 11 29.87 1012 10 16 0.00 0.00
10:07 am 10:07 Cloudy 70 21 N/A N/A SW 6 9 29.86 1011 10 16 0.00 0.00
10:56 am 10:56 Cloudy 73 22.8 73 22.8 100 100 W 8 13 29.88 1012 10 16 0.00 0.00
11:56 am 11:56 Mostly Cloudy 76 24.4 73 22.8 91 91 W 6 9 29.86 1011 10 16 0.00 0.00
12:56 pm 12:56 Cloudy 77 25 73 22.8 88 88 W 7 11 29.86 1011 10 16 0.00 0.00
1:56 pm 13:56 Mostly Cloudy 80 26.7 73 22.8 79 79 SW 8 13 29.85 1011 10 16 0.00 0.00
2:11 pm 14:11 Cloudy 79 26 73 23 84 84 SSW 7 11 29.85 1011 10 16 0.00 0.00
2:56 pm 14:56 Cloudy with Heavy Rain 74 23.3 74 23.3 100 100 SSW 6 9 29.86 1011 2 3 0.17 4.32
3:04 pm 15:04 Cloudy with Thunderstorms 72 22 72 22 100 100 SW 10 17 29.85 1011 4 6 0.09 2.29
3:13 pm 15:13 Cloudy with Thunderstorms 72 22 72 22 100 100 W 7 11 29.85 1011 10 16 0.12 3.05
3:40 pm 15:40 Mostly Cloudy 73 23 N/A N/A SW 5 7 29.84 1011 10 16 0.12 3.05
3:56 pm 15:56 Mostly Sunny 75 24 N/A N/A SW 6 9 29.83 1010 10 16 0.12 3.05
4:56 pm 16:56 Mostly Sunny 79 26.1 73 22.8 82 82 SW 5 7 29.82 1010 10 16 0.00 0.00
5:56 pm 17:56 Sunny 81 27.2 75 23.9 82 82 SSW 6 9 29.81 1009 10 16 0.00 0.00
6:56 pm 18:56 Mostly Sunny 79 26.1 76 24.4 90 90 SW 9 15 29.82 1010 10 16 0.00 0.00
7:34 pm 19:34 Partly Cloudy with Nearby Thunderstorms 79 26 77 25 94 94 SSW 7 11 29.82 1010 10 16 0.00 0.00
7:56 pm 19:56 Mostly Cloudy with Thunderstorms 77 25 76 24.4 96 96 NW 14 22 29.84 1011 10 16 0.00 0.00
8:05 pm 20:05 Windy with Storms Likely 73 23 73 23 100 100 NW 23 37 29.85 1011 10 16 0.00 0.00
8:16 pm 20:16 Cloudy with Thunderstorms 72 22 72 22 100 100 NNW 10 17 29.85 1011 10 16 0.00 0.00
8:42 pm 20:42 Cloudy 72 22 72 22 100 100 Calm 29.85 1011 10 16 0.00 0.00
8:51 pm 20:51 Cloudy with Light Rain 72 22 N/A N/A Calm 29.86 1011 10 16 0.00 0.00
8:56 pm 20:56 Cloudy with Light Rain 72 22 N/A N/A SE 3 6 29.88 1012 10 16 0.00 0.00
9:56 pm 21:56 Mostly Clear N/A N/A N/A E 6 9 N/A 10 16 0.00 0.00
10:56 pm 22:56 Clear N/A N/A N/A SE 5 7 N/A 10 16 0.00 0.00
11:56 pm 23:56 Clear N/A N/A N/A SE 6 9 N/A 10 16 0.01 0.25

Powered by AerisWeather